Oklahoma City / Page Muni, OK

5:12 AM CDT on August 18, 2017 (GMT -0500)
Oklahoma City / Page Muni

Weather History for KRCE - October, 2012

Change the Weather History Date:

Saturday, October 20, 2012

  Actual Average (KPWA) Record (KPWA)
Temperature  
Mean Temperature 64 °F -  
Max Temperature 80 °F 69 °F 88 °F (2003)
Min Temperature 48 °F 45 °F 31 °F (1976)
Degree Days  
Heating Degree Days 1    
Growing Degree Days 14 (Base 50)    
Moisture  
Dew Point 48 °F    
Average Humidity 57    
Maximum Humidity 83    
Minimum Humidity 42    
Precipitation  
Precipitation 0.00 in - - ()
Sea Level Pressure  
Sea Level Pressure 29.78 in    
Wind  
Wind Speed 10 mph (South)    
Max Wind Speed 17 mph    
Max Gust Speed 22 mph    
Visibility 10 miles    
Events      
Averages and records for this station are not official NWS values.
T = Trace of Precipitation, MM = Missing Value Source: NWS Daily Summary

Daily Weather History Graph

Daily Weather History Graph

Search for Another Location

Airport or City:

Trip Planner

Search our weather history database for the weather conditions in past years. The results will help you decide how hot, cold, wet, or windy it might be!

Date:

Astronomy

Oct. 20, 2012 Rise Set
Actual Time 7:42 AM CDT 6:48 PM CDT
Civil Twilight 7:16 AM CDT 7:14 PM CDT
Nautical Twilight 6:46 AM CDT 7:44 PM CDT
Astronomical Twilight 6:17 AM CDT 8:13 PM CDT
Moon 1:13 PM CDT (10/20) 11:41 PM CDT (10/20)
Length of Visible Light 11h 58m
Length of Day
11h 06m
Waxing Crescent, 34% of the Moon is Illuminated
Oct 20
Waxing Crescent
Oct 21
First Quarter
Oct 29
Full
Nov 6
Last Quarter
Nov 13
New

Hourly Weather History & Observations

Time (CDT) Temp. Heat Index Dew Point Humidity Pressure Visibility Wind Dir Wind Speed Gust Speed Precip Events Conditions
12:15 AM 50.0 °F - 35.6 °F 58% 29.85 in 10.0 mi South 8.1 mph - N/A   Clear
12:35 AM 51.8 °F - 35.6 °F 54% 29.86 in 10.0 mi South 9.2 mph - N/A   Clear
12:55 AM 51.8 °F - 35.6 °F 54% 29.86 in 10.0 mi South 9.2 mph - N/A   Clear
1:15 AM 50.0 °F - 35.6 °F 58% 29.85 in 10.0 mi South 8.1 mph - N/A   Clear
1:35 AM 50.0 °F - 35.6 °F 58% 29.85 in 10.0 mi South 8.1 mph - N/A   Clear
1:55 AM 50.0 °F - 35.6 °F 58% 29.85 in 10.0 mi South 8.1 mph - N/A   Clear
2:15 AM 50.0 °F - 35.6 °F 58% 29.85 in 10.0 mi South 6.9 mph - N/A   Clear
2:35 AM 50.0 °F - 35.6 °F 58% 29.85 in 10.0 mi SSW 5.8 mph - N/A   Clear
2:55 AM 50.0 °F - 35.6 °F 58% 29.84 in 10.0 mi South 6.9 mph - N/A   Clear
3:15 AM 50.0 °F - 37.4 °F 62% 29.84 in 10.0 mi South 8.1 mph - N/A   Clear
3:35 AM 48.2 °F - 35.6 °F 62% 29.83 in 10.0 mi South 5.8 mph - N/A   Clear
3:55 AM 48.2 °F - 37.4 °F 66% 29.83 in 10.0 mi South 6.9 mph - N/A   Clear
4:15 AM 50.0 °F - 37.4 °F 62% 29.82 in 10.0 mi South 6.9 mph - N/A   Partly Cloudy
4:35 AM 50.0 °F - 37.4 °F 62% 29.82 in 10.0 mi South 6.9 mph - N/A   Clear
4:55 AM 50.0 °F - 37.4 °F 62% 29.81 in 10.0 mi South 9.2 mph - N/A   Partly Cloudy
5:15 AM 51.8 °F - 35.6 °F 54% 29.80 in 10.0 mi South 9.2 mph - N/A   Partly Cloudy
5:35 AM 50.0 °F - 35.6 °F 58% 29.80 in 10.0 mi South 8.1 mph - N/A   Partly Cloudy
5:55 AM 50.0 °F - 37.4 °F 62% 29.80 in 10.0 mi South 6.9 mph - N/A   Partly Cloudy
6:15 AM 51.8 °F - 37.4 °F 58% 29.80 in 10.0 mi South 8.1 mph - N/A   Partly Cloudy
6:35 AM 51.8 °F - 37.4 °F 58% 29.80 in 10.0 mi South 8.1 mph - N/A   Clear
6:55 AM 51.8 °F - 37.4 °F 58% 29.80 in 10.0 mi South 9.2 mph - N/A   Clear
7:15 AM 51.8 °F - 37.4 °F 58% 29.80 in 10.0 mi South 9.2 mph - N/A   Partly Cloudy
7:35 AM 51.8 °F - 37.4 °F 58% 29.80 in 10.0 mi South 9.2 mph - N/A   Clear
7:55 AM 51.8 °F - 37.4 °F 58% 29.80 in 10.0 mi South 9.2 mph - N/A   Clear
8:15 AM 53.6 °F - 37.4 °F 54% 29.81 in 10.0 mi South 8.1 mph - N/A   Clear
8:35 AM 55.4 °F - 39.2 °F 54% 29.81 in 10.0 mi North - - N/A   Clear
8:55 AM 57.2 °F - 39.2 °F 51% 29.81 in 10.0 mi North - - N/A   Clear
9:15 AM 57.2 °F - 41.0 °F 55% 29.82 in 10.0 mi North - - N/A   Clear
9:35 AM 59.0 °F - 41.0 °F 51% 29.82 in 10.0 mi North - - N/A   Clear
9:55 AM 62.6 °F - 42.8 °F 48% 29.82 in 10.0 mi South 15.0 mph 19.6 mph N/A   Clear
10:15 AM 62.6 °F - 44.6 °F 52% 29.82 in 10.0 mi SSW 15.0 mph - N/A   Clear
10:35 AM 64.4 °F - 46.4 °F 52% 29.82 in 10.0 mi South 15.0 mph 19.6 mph N/A   Clear
10:55 AM 66.2 °F - 48.2 °F 52% 29.81 in 10.0 mi SSW 15.0 mph 18.4 mph N/A   Clear
11:15 AM 68.0 °F - 48.2 °F 49% 29.80 in 10.0 mi SSW 15.0 mph - N/A   Clear
11:35 AM 69.8 °F - 48.2 °F 46% 29.80 in 10.0 mi SSW 13.8 mph 19.6 mph N/A   Clear
11:55 AM 71.6 °F - 50.0 °F 46% 29.80 in 10.0 mi South 13.8 mph - N/A   Clear
12:15 PM 71.6 °F - 51.8 °F 50% 29.79 in 10.0 mi South 10.4 mph 18.4 mph N/A   Clear
12:35 PM 73.4 °F - 51.8 °F 47% 29.79 in 10.0 mi South 12.7 mph - N/A   Clear
12:55 PM 75.2 °F - 53.6 °F 47% 29.79 in 10.0 mi North - - N/A   Clear
1:15 PM 75.2 °F - 53.6 °F 47% 29.78 in 10.0 mi South 15.0 mph 19.6 mph N/A   Clear
1:35 PM 77.0 °F - 53.6 °F 44% 29.77 in 10.0 mi South 13.8 mph - N/A   Clear
1:55 PM 77.0 °F - 53.6 °F 44% 29.75 in 10.0 mi SSE 11.5 mph 16.1 mph N/A   Clear
2:15 PM 78.8 °F - 55.4 °F 44% 29.74 in 10.0 mi South 13.8 mph 17.3 mph N/A   Clear
2:35 PM 78.8 °F - 55.4 °F 44% 29.73 in 10.0 mi South 10.4 mph 17.3 mph N/A   Clear
2:55 PM 80.6 °F 80.5 °F 55.4 °F 42% 29.72 in 10.0 mi South 11.5 mph 17.3 mph N/A   Clear
3:15 PM 80.6 °F 80.5 °F 55.4 °F 42% 29.72 in 10.0 mi South 13.8 mph 19.6 mph N/A   Clear
3:35 PM 80.6 °F 80.5 °F 55.4 °F 42% 29.72 in 10.0 mi South 15.0 mph 19.6 mph N/A   Clear
3:55 PM 80.6 °F 80.5 °F 55.4 °F 42% 29.72 in 10.0 mi South 15.0 mph - N/A   Clear
4:15 PM 80.6 °F 80.5 °F 55.4 °F 42% 29.72 in 10.0 mi South 16.1 mph 21.9 mph N/A   Clear
4:35 PM 80.6 °F 80.5 °F 55.4 °F 42% 29.72 in 10.0 mi South 17.3 mph 21.9 mph N/A   Clear
4:55 PM 78.8 °F - 55.4 °F 44% 29.72 in 10.0 mi South 12.7 mph 21.9 mph N/A   Clear
5:15 PM 78.8 °F - 57.2 °F 47% 29.72 in 10.0 mi South 11.5 mph 19.6 mph N/A   Clear
5:35 PM 77.0 °F - 57.2 °F 50% 29.72 in 10.0 mi South 11.5 mph - N/A   Clear
5:55 PM 77.0 °F - 57.2 °F 50% 29.72 in 10.0 mi South 9.2 mph - N/A   Clear
6:15 PM 75.2 °F - 57.2 °F 53% 29.72 in 10.0 mi South 8.1 mph - N/A   Clear
6:35 PM 73.4 °F - 57.2 °F 57% 29.72 in 10.0 mi South 8.1 mph - N/A   Clear
6:55 PM 69.8 °F - 57.2 °F 64% 29.72 in 10.0 mi SSE 6.9 mph - N/A   Clear
7:15 PM 68.0 °F - 57.2 °F 68% 29.72 in 10.0 mi SSE 6.9 mph - N/A   Clear
7:35 PM 66.2 °F - 57.2 °F 73% 29.72 in 10.0 mi SSE 8.1 mph - N/A   Clear
7:55 PM 66.2 °F - 55.4 °F 68% 29.73 in 10.0 mi SSE 9.2 mph - N/A   Clear
8:15 PM 66.2 °F - 57.2 °F 73% 29.72 in 10.0 mi SSE 9.2 mph - N/A   Clear
8:35 PM 64.4 °F - 55.4 °F 73% 29.73 in 10.0 mi SSE 10.4 mph - N/A   Clear
8:55 PM 66.2 °F - 57.2 °F 73% 29.73 in 10.0 mi SSE 10.4 mph - N/A   Clear
9:15 PM 66.2 °F - 57.2 °F 73% 29.73 in 10.0 mi SSE 10.4 mph - N/A   Clear
9:35 PM 66.2 °F - 57.2 °F 73% 29.73 in 10.0 mi SSE 10.4 mph - N/A   Clear
9:55 PM 68.0 °F - 57.2 °F 68% 29.73 in 10.0 mi SSE 11.5 mph - N/A   Clear
10:15 PM 69.8 °F - 59.0 °F 68% 29.73 in 10.0 mi SSE 12.7 mph 18.4 mph N/A   Clear
10:35 PM 69.8 °F - 59.0 °F 68% 29.73 in 10.0 mi SSE 12.7 mph - N/A   Clear
10:55 PM 69.8 °F - 59.0 °F 68% 29.73 in 10.0 mi SSE 13.8 mph - N/A   Clear
11:15 PM 68.0 °F - 60.8 °F 78% 29.73 in 10.0 mi SSE 13.8 mph - N/A   Clear
11:35 PM 68.0 °F - 60.8 °F 78% 29.73 in 10.0 mi SSE 15.0 mph - N/A   Clear
11:55 PM 68.0 °F - 62.6 °F 83% 29.73 in 10.0 mi SSE 15.0 mph - N/A   Clear